Theta_e
320 320 319 315 312 317 310 310 305 309 312 317 327 330 332 333 336 337 339 341 344 345 347 349 349 351 350 354 357 358 358 360
317 316 315 314 317 309 311 301 300 306 308 310 322 327 330 332 334 337 341 342 343 344 345 346 348 350 351 355 353 358 356 358
315 313 313 311 310 312 312 310 303 302 306 318 324 330 330 332 335 337 338 341 344 346 345 345 347 349 349 353 354 352 352 348
310 318 320 318 314 313 307 306 309 308 307 325 330 331 333 335 337 338 340 341 342 344 346 346 347 349 351 353 351 351 354 352
307 312 317 315 316 316 314 313 309 306 309 329 330 331 334 334 337 339 340 342 343 344 345 347 345 345 345 345 344 343 346 344
305 309 314 312 315 316 314 308 309 311 312 325 327 330 332 334 337 338 340 342 343 343 345 346 346 346 345 346 345 346 345 344
312 311 311 312 312 314 313 313 309 311 312 318 328 330 332 336 336 336 337 337 338 339 341 343 344 344 346 348 348 345 346 347
309 313 312 310 313 314 314 314 315 314 313 322 330 332 331 333 334 334 337 336 338 340 342 342 342 345 346 345 346 347 346 342
306 313 312 308 313 314 316 317 316 311 320 327 329 327 330 333 333 334 337 337 338 339 341 342 344 344 343 341 343 341 340 341
307 313 302 312 319 318 316 317 319 319 324 328 329 330 333 336 337 336 337 338 340 340 340 342 342 341 342 342 343 341 338 337
308 308 310 313 317 315 315 315 320 319 326 329 330 330 332 338 341 340 340 341 341 341 341 341 340 340 339 337 336 334 330 329
311 306 303 314 320 322 321 310 320 322 327 328 329 321 328 336 340 339 340 339 338 337 337 336 336 337 335 333 330 328 325 323
312 309 311 319 321 322 308 312 322 326 329 330 327 332 336 337 337 339 337 336 335 335 334 333 332 332 330 328 324 323 322 321
314 310 307 321 320 314 322 326 326 329 333 332 335 335 335 335 334 332 330 330 331 329 327 326 326 327 324 322 321 321 320 319
314 317 323 325 324 327 325 327 331 333 334 336 333 333 333 331 330 329 329 328 328 326 324 323 323 324 321 320 320 318 318 318
316 320 322 325 326 328 329 331 334 336 336 335 333 333 331 330 328 327 326 324 325 323 321 320 321 320 320 320 319 318 318 317
318 323 324 326 327 328 329 333 334 336 336 335 333 332 331 329 327 326 324 323 322 320 319 318 318 317 316 318 318 315 315 314
315 324 325 327 330 330 330 332 334 334 334 334 334 331 330 327 326 324 322 321 320 319 318 317 316 316 318 318 317 315 314 313
321 325 327 328 330 331 332 332 333 333 334 331 331 329 327 324 323 317 320 319 318 317 316 316 315 316 318 318 317 315 314 314
Wind_Speed
16 12 13 8 13 14 12 9 9 5 5 11 12 10 8 9 8 8 7 7 7 5 6 6 6 7 6 9 10 11 12 11
13 9 8 11 5 10 9 9 18 6 5 7 13 9 8 9 9 9 9 9 9 8 8 6 6 7 6 8 7 7 7 7
10 14 16 9 10 9 12 8 10 10 2 6 8 9 9 9 9 9 9 8 8 7 7 6 4 3 5 4 5 4 2 5
19 7 3 8 9 12 10 13 9 9 9 6 12 10 11 10 9 10 8 8 7 7 6 4 6 7 8 7 6 3 3 3
8 11 7 10 12 11 9 8 11 9 3 9 9 11 10 11 10 10 9 8 7 7 7 6 6 6 8 8 6 4 3 5
12 3 3 13 9 9 11 10 9 7 5 14 10 12 12 11 10 10 9 8 7 6 6 6 5 6 5 5 5 5 5 5
14 4 7 8 7 11 12 12 8 11 10 5 11 14 13 13 12 11 11 9 7 7 6 5 6 4 4 2 1 3 1 5
14 8 11 9 8 10 11 7 8 10 12 8 9 15 14 13 12 13 13 11 10 8 6 6 6 7 3 3 3 3 1 3
14 9 9 10 13 12 11 9 9 9 9 11 15 15 15 15 13 14 14 12 11 9 8 9 9 8 7 6 5 5 5 4
12 8 13 3 4 4 9 7 5 4 7 11 13 12 11 11 13 13 12 12 10 9 9 8 8 8 8 7 6 6 5 5
7 12 4 6 6 8 10 8 6 6 9 11 13 13 10 8 10 12 12 9 7 7 8 7 7 7 7 7 6 5 5 5
11 15 14 9 12 3 2 8 5 3 10 14 17 11 10 12 12 12 12 10 9 9 9 8 7 6 6 5 5 5 6 5
11 11 4 7 9 8 10 7 6 4 8 11 11 6 17 15 12 12 11 11 10 9 8 7 6 6 5 5 5 5 4 5
3 8 10 11 9 9 8 8 7 5 9 11 11 14 15 14 14 12 12 12 10 9 8 7 5 4 5 5 5 5 5 5
5 2 4 14 3 5 1 10 5 6 8 12 15 15 16 14 13 12 12 9 8 8 8 6 5 3 4 5 4 4 3 3
5 6 7 10 5 2 2 7 7 7 11 13 15 16 16 15 13 12 10 8 7 6 6 5 5 5 5 4 4 3 2 3
3 4 4 6 4 5 5 7 11 13 13 14 17 16 15 14 13 11 9 7 6 5 5 5 5 5 4 3 1 3 4 5
3 7 4 7 7 7 9 11 12 14 16 15 16 16 15 13 10 10 8 7 6 6 6 5 5 4 2 1 3 5 6 5
5 3 6 5 7 8 10 11 11 14 16 19 16 15 14 13 10 9 8 7 6 6 5 5 4 2 1 2 4 6 7 7
Wind_Direction
222 225 234 213 228 261 303 281 273 234 149 254 108 109 104 93 103 113 132 136 99 149 167 145 165 195 195 206 214 210 205 204
181 205 196 279 282 199 221 180 256 160 256 265 129 129 123 112 104 104 108 126 129 121 125 129 148 153 197 211 229 218 210 225
171 204 204 179 219 238 276 262 293 277 247 80 111 142 130 118 112 115 120 120 124 128 131 139 137 134 126 108 87 87 103 69
201 109 351 276 265 214 227 221 239 304 298 96 119 136 132 125 121 118 120 124 125 121 114 112 81 66 52 61 75 68 143 157
186 174 179 234 200 241 280 314 278 282 335 122 128 132 132 131 124 127 131 133 122 124 130 119 94 79 75 69 65 60 94 102
198 191 305 193 208 221 240 261 286 245 304 148 143 146 145 139 133 133 133 135 125 130 126 131 134 124 114 83 69 67 88 82
263 286 272 294 231 207 237 273 293 338 320 61 156 161 155 148 144 138 142 143 135 145 144 172 190 187 162 135 298 166 42 32
244 241 250 264 237 235 233 251 268 277 276 63 134 129 152 152 154 149 149 136 133 132 124 136 199 180 174 348 217 175 173 21
225 200 222 237 232 226 235 237 256 283 72 135 149 160 154 158 157 152 153 146 148 138 121 111 113 123 121 124 134 132 136 138
236 178 227 254 41 218 239 259 238 254 128 151 152 145 154 150 140 146 152 153 149 136 128 126 119 107 115 112 110 111 110 95
203 218 187 166 179 188 211 227 193 216 134 140 137 136 135 132 141 139 139 136 132 121 112 114 119 125 125 123 129 128 98 76
200 241 228 254 144 152 188 223 136 209 153 157 164 196 150 160 136 135 141 135 131 120 125 124 124 134 142 140 134 91 68 49
193 229 163 111 139 161 216 91 108 155 166 173 195 33 126 137 143 139 125 124 122 128 122 124 140 134 126 124 96 87 71 55
257 239 234 149 148 218 104 106 119 136 158 161 118 126 131 137 137 134 127 128 125 126 119 111 111 126 120 94 84 78 76 69
293 44 117 170 26 94 86 129 125 153 161 139 143 142 141 140 141 135 131 130 130 129 124 104 82 64 106 101 100 97 93 71
265 146 166 184 162 168 193 113 132 142 144 152 143 143 142 142 141 139 138 140 130 134 123 109 92 85 99 127 145 183 204 247
227 141 170 186 208 145 132 125 130 133 143 143 142 142 144 142 142 140 137 134 135 139 134 125 124 117 109 118 188 279 297 302
128 121 27 85 153 154 152 145 143 138 136 139 140 140 140 138 135 136 134 134 140 133 133 135 144 135 129 345 312 304 294 276
72 51 72 90 123 153 147 143 144 146 140 137 136 137 135 131 131 116 131 133 134 134 129 144 148 169 188 294 278 280 286 295